Flag for Poland Weather past 2 weeks in Grudziądz, Poland

Now
41 °F

Scattered clouds.


Feels Like: 39 °F
Forecast: 28 / 41 °F
Wind: 3 mph from Northwest

Location: Torun

Current Time: Mar 5, 2015 at 1:24:34 PM

Latest Report: Mar 5, 2015 at 12:00 PM


Visibility: 11 mi

Pressure: 30.36 "Hg

Humidity: 68%

Dew point: 31 °F

Location of GrudziądzLocation

Historic Weather in Grudziądz — Graph

°F

Grudziądz temperature yesterday

Maximum temperature yesterday: 41 °F (at 4:00 PM)
Minimum temperature yesterday: 32 °F (at 7:00 PM)
Average temperature yesterday: 36 °F

Past Weeks' High & Low Weather Summary

 TemperatureHumidityPressure
High48 °F (Mar 1, 1:00 PM)100% (Feb 23, 12:00 AM)30.62 "Hg (Feb 23, 12:00 AM)
Low27 °F (Feb 25, 7:00 AM)46% (Feb 21, 1:00 PM)29.38 "Hg (Mar 2, 12:00 PM)
Average38 °F82%29.93 "Hg
* Reported Feb 18 12:00 Noon — Mar 5 12:00 Noon, Grudziądz, Weather by CustomWeather, © 2015

Note: Actual official high and low records may vary slightly from our data, if they occured in-between our weather recording intervals... More about our weather records

Advertising

Grudziądz weather history for previous 24 hours

 ConditionsComfort  
Time TempWeatherWind HumidityBarometerVisibility
12:00 PM
Thu, Mar 5
41 °FScattered clouds.3 mph68%30.36 "Hg11 mi
11:00 AM40 °FPartly sunny.2 mph76%30.34 "Hg7 mi
10:00 AM37 °FFog.1 mph93%30.34 "Hg3 mi
9:00 AM35 °FLow clouds.2 mph95%30.32 "Hg2 mi
8:00 AM34 °FSnow flurries. Low clouds.2 mph96%30.31 "Hg1 mi
7:00 AM33 °FSnow flurries. Overcast.1 mph96%30.29 "Hg2 mi
6:00 AM33 °FFog.2 mph96%30.27 "Hg2 mi
5:00 AM33 °FFog.2 mph96%30.26 "Hg2 mi
4:00 AM31 °FFog.1 mph96%30.25 "Hg2 mi
2:00 AM30 °FFog.1 mph95%30.22 "Hg2 mi
1:00 AM32 °FFog.1 mph93%30.22 "Hg2 mi
12:00 AM34 °FFog.2 mph92%30.21 "Hg4 mi
11:00 PM
Wed, Mar 4
35 °FFog.2 mph91%30.19 "Hg5 mi
10:00 PM35 °FFog.2 mph90%30.17 "Hg5 mi
9:00 PM34 °FPassing clouds.1 mph86%30.16 "Hg7 mi
8:00 PM33 °FFog.2 mph93%30.15 "Hg2 mi
7:00 PM32 °FFog.No wind89%30.14 "Hg1 mi
6:00 PM36 °FOvercast.No wind84%30.13 "Hg5 mi
5:00 PM40 °FPartly sunny.2 mph64%30.10 "Hg6 mi
4:00 PM41 °FPartly sunny.3 mph63%30.08 "Hg7 mi
3:00 PM40 °FPartly sunny.2 mph77%30.07 "Hg10 mi
2:00 PM37 °FLight rain. Overcast.1 mph93%30.05 "Hg4 mi
1:00 PM36 °FLight rain. Low clouds.5 mph90%30.03 "Hg2 mi
Weather by CustomWeather, © 2015

See weather overviewHow to use our weather pages